Regional Weather Roundup
Issued by NWS

Home | Current Version | Previous Version | Text Only | Print | Product List | Glossary On
Versions: 1 2 3 4 5 6 7 8 9 10 11 12 13 14 15 16 17 18 19 20 21 22 23 24 25 26 27 28 29 30 31 32 33 34 35 36 37 38 39 40 41 42 43 44 45 46 47 48 49 50
000
ASCA42 TJSJ 200210
RWRPR
PUERTO RICO/U.S. VIRGIN ISLANDS HOURLY WEATHER ROUNDUP
NATIONAL WEATHER SERVICE SAN JUAN PR
1000 PM AST MON FEB 19 2018

PRZ001>002-007>008-010-200300-
PUERTO RICO

CITY           SKY/WX    TMP DP  RH WIND       PRES   REMARKS
SAN JUAN LMM   PTCLDY    75  68  78 E13       30.18R
AGUADILLA      MOCLDY    72  68  88 E10G21    30.19R
$$

VIZ001>002-200300-
U.S. VIRGIN ISLANDS

CITY           SKY/WX    TMP DP  RH WIND       PRES   REMARKS
CHARLOTTE AMA  PTCLDY    75  70  83 E14       30.16R
CHRISTIANSTED  CLEAR     77  66  69 NE18G24   30.16R
$$

HOURLY WEATHER ROUNDUP FOR THE NEWS MEDIA

CITY           SKY/WX    TMP DP  RH WIND       PRES   REMARKS
ORLANDO        CLOUDY    74  68  81 E13       30.30R
NEW YORK       CLOUDY    44  44 100 S3        30.36S
NEWARK         DRIZZLE   47  46  97 CALM      30.34F FOG
CHICAGO        LGT RAIN  58  55  90 S16G26    29.80F
HARTFORD       LGT RAIN  47  45  93 SW10      30.36F
BOSTON         LGT RAIN  48  45  89 SW18      30.31S
DALLAS         LGT RAIN  74  62  66 S24G33    29.81R
PHILADELPHIA   CLOUDY    48  47  96 W3        30.35  FOG
LOS ANGELES    PTCLDY    53  16  23 N9G21     29.93R
WASHINGTON DC  CLOUDY    47  46  97 S6        30.34S


USA.gov is the U.S. government's official web portal to all federal, state and local government web resources and services.